Powrót do katalogu

THORAD AGENA D DEB

AktywnyLEO
NORAD 4895·DEBRIS·🇺🇸 United States

Wystrzelony Sep 30, 1969 z Vandenberg Space Force Base

Loading…

Następne Przeloty (najbliższe 24 godziny)

TLE

ŚwieżeSource: Space-Track

Epoka: Sep 13, 2026, 22:47 UTC

1  4895U 69082HE  26256.94938542  .00000719  00000-0  23007-3 0  9998
2  4895  70.1686 236.9205 0038992 164.9387 195.2916 14.42956016956003

Śledź THORAD AGENA D DEB w czasie rzeczywistym z AllMySat

Download on the App Store